Estación Meteorológica Peña el Pijo (Robertgarden) [ 09/28/20 18:52:03 CEST ]

Fecha Hora Presion(HPa) Temp (°C) Humedad % Rocio (°C) Viento ( m/s) Direccion Lluvia 1Hora(mm) Lluvia 24H(mm) LLuvia Total(mm)
2020-Apr-09 01:09:32 1012.000 - - - - W     39.88
2020-Apr-09 02:09:14 1011.600 - - - - W     39.88
2020-Apr-09 03:09:31 1010.900 - - - - W     39.88
2020-Apr-09 04:09:32 1010.500 - - - - W     39.88
2020-Apr-09 05:09:15 1010.200 - - - - W     39.88
2020-Apr-09 06:08:53 1009.400 - - - - W     39.88
2020-Apr-09 07:09:39 1009.600 - - - - W     39.88
2020-Apr-09 08:09:44 1009.800 - - - - W     39.88
2020-Apr-09 09:38:48 1010.200 - - - - W     39.88
2020-Apr-09 10:09:38 1010.300 - - - - W     39.88
2020-Apr-09 11:09:34 1010.500 - - - - W     39.88
2020-Apr-09 12:09:08 1010.400 - - - - W     39.88
2020-Apr-09 13:09:13 1010.200 - - - - W     39.88
2020-Apr-09 14:09:23 1010.200 - - - - W     39.88
2020-Apr-09 15:09:13 1009.700 - - - - W     39.88
2020-Apr-09 16:08:50 1009.300 - - - - W     39.88
2020-Apr-09 17:09:18 1009.200 - - - - W     39.88
2020-Apr-09 18:09:05 1009.100 - - - - W     39.88
2020-Apr-09 19:08:41 1009.300 - - - - W     39.88
2020-Apr-09 20:09:03 1009.600 - - - - W     39.88
2020-Apr-09 21:08:51 1009.900 - - - - W     39.88
2020-Apr-09 22:09:35 1010.900 - - - - W     39.88
2020-Apr-09 23:09:29 1011.200 - - - - W     39.88

Temperatura Máxima:    Temperatura Mínima:
Presión Máxima:1012.000 Hpa    Presión Mínima:1009.100 Hpa


Volver